Florence, SC

7:14 AM EDT on October 17, 2017 (GMT -0400)
Florence Regional

Weather History for KFLO - September, 2013

Change the Weather History Date:

Saturday, September 14, 2013

  Actual Average Record
Temperature  
Mean Temperature 73 °F 75 °F  
Max Temperature 82 °F 85 °F 96 °F (1991)
Min Temperature 63 °F 65 °F 49 °F (1985)
Degree Days  
Heating Degree Days 0 0  
Month to date heating degree days 0 0  
Since 1 July heating degree days 0 0  
Cooling Degree Days 8 10  
Month to date cooling degree days 206 163  
Year to date cooling degree days 1833 1833  
Growing Degree Days 23 (Base 50)    
Moisture  
Dew Point 56 °F    
Average Humidity 59    
Maximum Humidity 73    
Minimum Humidity 45    
Precipitation  
Precipitation 0.00 in 0.11 in 1.21 in (1983)
Month to date precipitation 0.08 1.82  
Year to date precipitation 46.54 32.30  
Sea Level Pressure  
Sea Level Pressure 29.98 in    
Wind  
Wind Speed 10 mph (NE)    
Max Wind Speed 21 mph    
Max Gust Speed 25 mph    
Visibility 10 miles    
Events      
T = Trace of Precipitation, MM = Missing Value Source: NWS Daily Summary

Daily Weather History Graph

Daily Weather History Graph

Search for Another Location

Airport or City:

Trip Planner

Search our weather history database for the weather conditions in past years. The results will help you decide how hot, cold, wet, or windy it might be!

Date:

Astronomy

Sep. 14, 2013 Rise Set
Actual Time 7:01 AM EDT 7:26 PM EDT
Civil Twilight 6:36 AM EDT 7:51 PM EDT
Nautical Twilight 6:06 AM EDT 8:21 PM EDT
Astronomical Twilight 5:36 AM EDT 8:51 PM EDT
Moon 3:56 PM EDT (9/14) 1:42 AM EDT (9/14)
Length of Visible Light 13h 15m
Length of Day
12h 25m
Waxing Gibbous, 72% of the Moon is Illuminated
Sep 14
Waxing Gibbous
Sep 19
Full
Sep 26
Last Quarter
Oct 4
New
Oct 11
First Quarter

Hourly Weather History & Observations

Time (EDT) Temp. Heat Index Dew Point Humidity Pressure Visibility Wind Dir Wind Speed Gust Speed Precip Events Conditions
12:53 AM 73.0 °F - 57.0 °F 57% 29.85 in 10.0 mi North 10.4 mph - N/A   Mostly Cloudy
1:53 AM 70.0 °F - 54.0 °F 57% 29.85 in 10.0 mi North 9.2 mph - N/A   Clear
2:53 AM 69.1 °F - 52.0 °F 54% 29.86 in 10.0 mi North 10.4 mph - N/A   Partly Cloudy
3:53 AM 68.0 °F - 51.1 °F 55% 29.88 in 10.0 mi North 11.5 mph - N/A   Mostly Cloudy
4:53 AM 68.0 °F - 51.1 °F 55% 29.89 in 10.0 mi North 10.4 mph - N/A   Mostly Cloudy
5:53 AM 66.0 °F - 51.1 °F 59% 29.90 in 10.0 mi North 11.5 mph - N/A   Mostly Cloudy
6:53 AM 64.0 °F - 53.1 °F 67% 29.92 in 10.0 mi North 11.5 mph - N/A   Scattered Clouds
7:53 AM 64.9 °F - 54.0 °F 68% 29.95 in 10.0 mi North 8.1 mph - N/A   Clear
8:53 AM 68.0 °F - 53.1 °F 59% 29.97 in 10.0 mi NNE 15.0 mph 19.6 mph N/A   Clear
9:53 AM 71.1 °F - 53.1 °F 53% 29.98 in 10.0 mi NE 13.8 mph 25.3 mph N/A   Clear
10:53 AM 73.9 °F - 53.1 °F 48% 30.00 in 10.0 mi NNE 16.1 mph 21.9 mph N/A   Scattered Clouds
11:53 AM 75.0 °F - 54.0 °F 48% 30.01 in 10.0 mi NE 11.5 mph 20.7 mph N/A   Overcast
12:53 PM 78.1 °F - 55.9 °F 46% 30.01 in 10.0 mi NNE 9.2 mph - N/A   Mostly Cloudy
1:53 PM 75.9 °F - 57.0 °F 52% 30.01 in 10.0 mi NE 9.2 mph - N/A   Overcast
2:53 PM 79.0 °F - 57.0 °F 47% 30.00 in 10.0 mi ENE 9.2 mph - N/A   Mostly Cloudy
3:53 PM 82.0 °F 82.1 °F 59.0 °F 45% 29.99 in 10.0 mi NE 9.2 mph - N/A   Partly Cloudy
4:53 PM 82.0 °F 82.1 °F 59.0 °F 45% 29.99 in 10.0 mi ENE 9.2 mph - N/A   Clear
5:53 PM 80.1 °F 80.7 °F 59.0 °F 48% 30.01 in 10.0 mi NE 9.2 mph - N/A   Clear
6:53 PM 77.0 °F - 60.1 °F 56% 30.01 in 10.0 mi NE 3.5 mph - N/A   Scattered Clouds
7:53 PM 72.0 °F - 62.1 °F 71% 30.03 in 10.0 mi ENE 4.6 mph - N/A   Mostly Cloudy
8:53 PM 73.0 °F - 62.1 °F 68% 30.06 in 10.0 mi ENE 5.8 mph - N/A   Overcast
9:53 PM 73.0 °F - 60.1 °F 64% 30.08 in 10.0 mi ENE 8.1 mph - N/A   Overcast
10:53 PM 72.0 °F - 59.0 °F 64% 30.09 in 10.0 mi ENE 6.9 mph - N/A   Overcast
11:53 PM 70.0 °F - 57.0 °F 63% 30.10 in 10.0 mi ENE 8.1 mph - N/A   Partly Cloudy